Presure
143 185 117 122 152 123 145 99 173 144 128 148 142 145 107 111 117 123 127 125 128 141 129 169 240 403 447 268 391 401 182 225 312 375 254 125 160 130 200 155 130 123 165 156 222
186 166 168 153 144 118 183 159 111 181 127 143 128 135 113 119 131 124 133 146 216 288 226 150 293 410 296 341 155 163 402 303 338 118 114 107 157 121 153 119 141 65 93 132 174
179 154 181 110 179 188 114 199 181 174 149 137 135 142 123 147 161 139 134 135 144 114 449 205 138 338 420 425 399 195 417 282 148 353 322 221 125 169 151 132 110 142 151 127 126
185 147 168 138 180 179 175 178 154 104 157 122 136 169 184 136 226 137 155 298 221 161 439 404 307 418 413 408 416 411 402 247 328 347 327 217 224 265 248 240 228 148 139 143 129
147 152 168 166 160 155 166 163 136 169 145 118 120 125 193 207 249 238 193 296 391 357 262 344 431 418 407 399 404 264 313 369 354 358 158 212 120 142 122 128 138 225 201 155 128
182 153 133 180 139 181 173 180 111 146 146 166 158 190 195 179 186 247 239 313 353 280 329 411 419 412 399 395 393 402 399 359 351 357 320 293 157 145 184 246 216 169 151 164 163
125 181 179 179 180 179 133 140 141 151 134 167 155 179 189 208 292 186 284 456 430 415 411 400 416 221 184 386 390 396 389 352 344 333 329 284 254 201 236 242 123 116 110 144 193
181 183 135 194 197 193 170 177 139 131 167 143 179 167 178 280 313 310 459 436 419 402 386 393 400 317 387 386 383 390 394 365 330 329 322 279 235 225 250 244 132 129 152 139 134
170 174 146 179 166 178 139 170 121 132 168 132 164 177 197 215 284 414 449 428 408 401 377 373 328 406 253 392 382 384 272 366 150 342 298 275 268 128 225 238 207 214 146 133 132
157 177 185 185 180 136 143 139 135 153 169 144 185 185 287 295 292 455 434 416 400 384 375 360 378 385 414 347 383 376 214 306 316 332 320 322 274 227 244 234 232 134 144 143 130
157 179 184 182 185 141 181 145 176 160 169 139 163 191 292 159 317 435 419 403 382 376 363 358 254 383 405 407 388 376 134 130 143 171 305 310 271 301 308 255 225 139 195 191 132
179 161 173 172 133 157 165 124 144 148 158 167 174 230 296 312 367 430 418 391 378 367 358 343 351 364 385 398 391 376 368 338 135 162 318 288 281 265 240 192 132 232 211 152 229
163 170 180 173 153 159 116 173 118 155 156 271 246 295 302 314 431 418 400 387 372 352 349 336 334 344 371 225 350 380 141 359 347 348 337 313 297 299 294 131 187 220 109 187 224
193 168 172 199 142 172 159 171 124 132 184 272 210 272 312 342 421 415 397 379 362 348 343 333 328 330 348 375 399 390 362 132 340 371 331 318 319 280 301 287 154 226 204 185 158
169 172 174 169 162 158 167 141 123 138 183 179 276 295 323 449 425 406 384 371 355 346 337 326 323 322 332 358 389 393 324 263 360 361 337 314 315 312 275 291 260 250 248 232 186
166 166 174 159 165 144 149 159 120 166 170 275 282 301 320 439 417 399 377 368 351 338 329 329 321 316 320 336 374 389 385 365 355 357 369 292 297 332 312 276 277 283 253 176 208
163 162 171 170 162 159 144 138 147 154 217 274 247 308 310 427 411 398 377 357 345 338 324 321 317 314 313 319 352 386 405 369 361 361 345 345 311 293 311 293 261 263 288 253 253
162 163 192 180 151 146 124 137 160 210 233 281 290 263 411 427 409 389 375 351 337 330 322 323 313 309 308 315 335 376 394 392 373 371 372 352 330 313 308 259 285 261 254 127 268
161 166 160 172 163 139 144 140 189 161 259 255 287 299 431 418 409 393 373 346 332 322 312 316 368 431 307 309 324 365 390 369 383 367 366 341 370 309 281 258 270 269 106 262 263
159 156 160 151 121 121 136 194 141 160 263 273 258 212 433 417 405 385 364 349 326 315 310 311 405 407 423 305 313 363 383 383 374 372 377 379 388 311 297 291 275 268 263 266 273
155 166 154 156 133 143 158 128 175 252 260 266 204 311 418 409 392 370 354 342 324 311 304 307 406 410 412 300 304 339 382 373 367 367 359 358 351 334 319 288 272 279 271 260 211
148 155 176 120 137 139 213 142 135 206 236 269 314 329 426 401 385 368 348 333 321 309 305 298 355 388 400 438 302 319 369 372 360 355 345 350 333 335 315 314 288 288 249 262 254
170 186 169 157 153 153 137 175 206 215 149 273 311 324 313 404 371 363 344 329 314 304 301 313 336 380 398 417 298 306 364 369 354 347 335 339 350 375 313 306 295 284 263 279 250
129 197 125 146 147 147 135 128 165 203 142 226 259 325 415 396 379 357 346 320 306 300 296 297 374 374 381 397 346 305 357 368 357 346 327 337 344 307 332 299 285 296 283 268 265
144 132 128 167 170 128 109 248 230 144 262 303 280 303 421 390 374 357 339 315 301 297 299 312 377 374 375 389 408 293 321 364 362 339 354 328 335 339 363 308 286 277 279 261 267
161 123 130 167 142 121 182 252 155 146 262 311 296 310 335 393 367 349 335 313 299 295 294 389 365 370 366 381 407 294 304 353 357 340 332 329 324 310 358 313 289 273 255 261 282
131 128 184 128 111 233 224 129 259 228 180 260 259 315 307 392 366 347 329 313 298 292 296 338 371 363 360 372 397 302 292 343 333 332 337 330 327 329 328 308 271 289 244 276 273
Wind_Speed
25 43 33 22 33 34 30 24 36 37 45 31 37 42 44 48 57 67 73 61 58 81 57 62 71 47 42 49 55 67 54 64 69 81 79 64 52 51 68 58 45 48 53 50 69
45 43 39 30 35 41 48 35 33 45 42 40 51 48 65 58 69 70 55 71 80 84 75 80 52 42 53 42 58 60 73 68 72 62 59 32 61 57 44 56 48 12 31 47 55
50 45 50 37 49 57 42 63 49 41 33 40 44 47 70 67 68 67 82 75 81 39 33 68 73 44 36 40 46 60 61 64 67 84 83 69 59 66 43 53 49 54 52 53 55
53 43 47 33 54 51 46 47 33 40 33 53 42 45 58 75 86 85 84 105 78 69 30 31 47 36 35 35 46 54 61 54 75 82 88 69 90 100 100 90 84 57 50 52 55
44 43 51 47 46 49 56 36 33 42 36 65 68 51 75 76 96 84 78 100 69 34 55 37 30 35 34 35 45 43 48 72 79 86 56 68 60 47 43 65 63 88 79 57 58
58 53 36 63 41 62 53 59 46 34 52 47 48 68 72 71 85 100 91 105 42 49 38 28 27 33 34 38 43 45 56 73 80 79 90 95 62 46 68 94 82 69 51 61 55
36 64 67 68 68 66 45 28 37 31 40 41 49 63 78 87 117 71 106 25 24 24 19 24 25 38 40 39 42 47 57 74 77 80 86 89 97 74 88 89 57 54 36 53 74
68 70 46 71 75 74 57 64 40 45 48 44 56 55 75 115 123 119 30 24 18 19 18 20 22 31 34 39 43 50 57 71 80 81 91 91 102 95 98 96 73 70 52 56 53
68 72 47 73 59 71 42 59 42 41 50 57 60 70 91 94 111 61 29 23 17 16 16 18 20 23 32 41 45 49 35 67 34 80 90 92 98 67 83 87 82 85 55 60 62
54 75 73 77 75 47 42 33 38 56 52 53 69 83 119 119 116 32 28 23 16 16 13 17 15 21 31 33 43 47 33 48 84 82 83 85 91 98 97 92 96 65 61 68 66
55 74 77 77 78 41 79 45 79 54 60 58 62 86 119 78 119 32 27 22 18 13 10 14 23 20 24 39 45 51 20 23 27 42 89 86 94 90 88 94 97 66 86 70 67
72 63 77 73 37 58 66 38 46 54 59 64 74 101 122 121 83 28 25 20 16 11 10 13 11 16 20 32 42 51 55 56 20 41 90 82 90 92 99 63 56 98 90 69 100
67 71 79 77 54 62 39 73 43 64 64 119 108 125 124 122 34 29 24 19 14 13 9 11 12 13 17 24 37 50 24 59 68 78 83 89 91 89 87 56 77 92 46 72 98
89 73 78 91 48 78 64 72 40 47 85 121 97 119 128 107 35 26 21 17 14 13 11 10 13 14 18 23 35 48 54 20 68 72 83 86 86 90 88 89 70 99 83 66 73
72 70 77 73 66 63 72 49 44 48 85 84 124 128 124 26 28 25 23 17 13 10 10 10 13 15 19 21 32 48 48 43 65 70 85 82 81 84 89 89 92 94 95 83 67
71 70 79 63 72 58 58 69 47 72 72 123 125 133 122 28 28 23 22 18 12 11 11 11 12 17 20 21 28 41 54 60 65 68 75 89 86 81 84 81 83 85 94 69 86
66 66 77 76 70 68 56 49 58 61 95 123 110 130 119 27 27 23 19 17 15 11 10 13 14 18 23 23 28 37 52 59 63 66 75 88 89 84 80 87 91 87 73 75 94
66 69 89 84 60 58 42 52 74 102 105 127 135 105 47 24 27 23 18 16 16 13 11 10 14 18 23 26 28 36 46 60 60 59 62 78 89 86 86 92 87 96 96 57 83
65 74 68 81 77 55 62 57 85 75 118 117 135 119 32 30 25 24 19 16 16 13 13 11 9 8 23 27 30 34 42 50 56 55 60 76 84 90 88 89 93 90 28 85 82
60 59 69 59 39 36 54 92 55 77 121 129 110 88 28 27 26 25 22 18 16 13 12 12 10 7 4 28 30 35 42 48 52 54 54 58 68 95 94 99 98 96 87 83 79
58 72 64 63 51 63 79 44 75 114 117 123 84 111 41 30 28 27 23 21 17 14 11 11 7 10 2 29 31 34 40 46 50 52 53 61 74 89 92 94 92 96 89 82 65
51 61 84 39 55 54 100 64 52 97 102 128 114 103 33 32 29 27 23 23 19 17 13 12 10 7 4 2 31 33 40 45 49 53 58 60 73 88 90 94 90 86 83 86 85
83 95 79 72 69 72 45 92 91 98 56 132 113 102 97 31 28 29 23 24 21 20 16 19 13 6 2 6 32 33 39 45 52 54 59 61 63 59 89 91 91 88 86 94 85
47 108 45 61 61 69 58 43 65 88 49 110 88 101 36 35 28 29 24 22 22 22 19 18 12 9 9 12 32 35 38 44 52 57 61 59 61 80 83 88 87 85 83 83 92
50 42 47 77 85 42 33 116 103 44 123 121 98 97 35 35 32 27 24 23 23 24 22 16 14 13 11 11 26 34 37 41 50 56 61 60 58 62 63 87 86 85 86 83 84
70 43 43 79 63 34 98 116 57 45 125 105 109 95 94 35 32 29 24 22 24 24 22 16 15 15 14 13 19 38 38 46 51 57 56 60 61 70 56 85 89 85 80 80 86
43 45 83 39 30 105 100 40 121 97 83 96 100 92 89 37 33 29 26 23 24 24 23 11 18 15 15 14 18 44 40 45 48 52 55 58 60 60 67 81 84 91 78 84 84
Wind_Direction
305 338 280 322 302 274 284 287 314 280 271 313 281 278 308 308 300 294 294 302 290 283 307 309 279 258 240 228 231 224 246 248 223 213 222 241 248 236 225 237 232 225 232 228 218
341 332 323 306 327 276 329 306 289 325 273 277 276 274 295 303 292 299 287 307 300 319 300 280 275 251 259 243 261 265 218 225 216 248 262 251 236 239 239 245 223 229 231 225 221
335 324 330 309 328 330 295 329 328 316 288 278 276 281 284 279 296 297 286 292 284 297 279 280 293 262 237 220 221 249 215 216 259 209 205 233 233 239 231 228 240 232 222 223 228
334 321 323 294 328 326 323 326 290 312 295 278 289 314 325 295 329 283 296 326 324 303 272 265 274 237 229 222 216 210 211 227 206 205 203 214 224 210 210 211 213 227 221 226 228
327 316 322 319 313 315 318 315 281 315 289 287 286 300 336 331 321 330 326 329 321 293 288 277 241 236 227 216 215 243 224 205 205 202 221 227 241 214 237 232 225 213 221 228 221
328 320 295 325 306 325 325 326 299 308 293 316 308 338 337 333 316 319 327 331 302 299 288 261 246 231 221 213 214 206 203 203 204 201 202 205 222 220 226 207 211 216 219 220 230
292 325 324 324 323 324 295 293 298 300 282 323 309 332 333 335 332 328 332 316 296 285 276 260 249 262 263 214 208 204 202 201 204 201 201 203 212 224 214 207 227 247 232 218 217
327 324 304 326 328 325 325 325 295 296 324 299 338 318 331 332 330 334 329 325 301 281 277 262 252 252 221 212 206 202 199 199 199 200 205 204 210 215 208 209 235 237 214 215 226
329 327 312 323 322 324 306 324 289 289 327 295 325 335 338 326 336 336 332 324 305 285 273 266 268 234 261 208 204 203 210 198 249 201 203 202 206 231 217 211 214 214 210 224 224
322 325 324 322 322 312 317 309 298 320 329 304 333 339 330 331 336 337 331 326 312 291 270 264 252 237 216 221 203 201 239 205 200 200 202 200 204 212 209 211 211 229 211 220 230
321 324 322 322 323 319 325 322 327 328 335 306 329 339 333 315 338 337 334 324 314 296 265 261 284 244 220 206 202 198 239 222 245 241 202 200 205 204 202 208 209 228 211 224 229
322 324 324 324 310 324 322 298 316 325 330 333 338 337 334 336 339 343 341 329 321 299 280 259 262 243 228 211 203 199 197 200 244 239 201 205 204 204 210 218 223 209 213 224 213
321 323 323 325 326 324 303 327 299 322 328 336 336 336 336 339 348 343 338 330 315 303 282 254 241 235 230 250 210 199 241 198 200 201 198 203 203 203 202 228 217 210 228 220 215
333 321 321 336 324 324 324 328 306 316 331 337 337 337 340 343 347 349 340 334 317 300 273 249 234 227 232 209 203 197 197 223 200 201 196 204 199 202 200 204 218 212 218 226 222
318 324 319 323 325 323 324 321 316 322 333 337 336 338 341 350 348 353 340 337 322 308 284 254 232 227 227 212 198 197 200 204 201 200 194 198 201 197 203 199 209 214 216 222 224
316 320 319 324 324 319 323 325 315 331 340 337 336 340 344 350 349 354 343 342 329 307 294 269 236 221 224 218 204 195 195 200 203 202 197 203 202 196 198 199 206 211 215 219 221
317 320 320 323 326 325 322 326 328 333 339 337 336 341 343 347 348 350 347 337 331 323 281 276 244 225 223 215 206 196 195 200 205 203 198 198 202 198 191 195 206 211 210 213 214
318 321 327 322 325 320 323 325 330 334 339 339 339 342 347 350 350 348 349 335 330 328 308 284 253 229 223 214 209 196 193 198 204 204 198 201 196 200 191 205 196 209 217 229 216
318 322 325 324 327 319 324 326 334 333 340 338 339 341 350 349 349 348 346 341 332 327 308 300 304 350 220 214 209 203 193 197 198 199 199 200 196 199 198 202 204 203 216 215 217
320 325 325 327 321 333 324 331 329 331 341 340 337 337 348 347 349 346 343 345 330 331 316 306 344 325 263 215 212 198 194 194 194 194 195 198 199 198 198 196 202 205 212 213 217
321 320 323 327 317 323 328 322 336 340 341 338 339 344 347 344 345 344 342 340 336 328 313 306 7 37 13 215 214 205 198 195 192 191 188 198 194 196 198 201 205 204 206 211 215
321 326 322 319 321 330 331 327 339 336 340 339 341 348 346 344 342 340 343 334 335 325 324 297 331 54 297 204 212 206 195 194 191 192 190 196 194 196 199 198 203 197 210 208 215
314 319 322 324 326 325 333 329 339 337 342 339 342 347 345 343 339 335 340 331 332 322 329 329 303 255 2 192 210 205 197 191 189 190 197 197 193 198 200 200 202 202 204 202 215
312 319 311 326 325 322 328 338 334 341 332 337 340 349 340 339 344 333 335 331 328 323 320 311 271 248 214 192 203 204 195 192 189 191 198 199 194 198 200 202 204 201 201 206 207
325 308 312 322 325 331 322 334 339 328 339 338 338 344 342 336 339 337 333 326 323 320 322 301 229 220 220 212 196 205 195 189 188 194 194 198 196 196 200 201 204 204 202 208 208
313 306 322 324 319 340 325 334 343 333 338 339 336 344 351 339 338 336 331 323 319 318 320 210 235 216 219 215 202 203 201 188 187 194 196 197 198 195 194 200 204 206 209 209 208
304 310 318 319 309 326 330 332 336 336 329 336 333 341 343 340 337 334 327 320 314 315 320 267 209 210 215 212 201 202 201 195 193 196 198 198 202 199 195 198 205 204 210 207 211